Hlavní strana
METAR-TAF:

METAR-TAF

Letiště :

Skövde, Švédsko

zeměpisná šířka: 58-27N, zeměpisná délka: 013-58E, výška: 98 m

Aktuální stav počasí

Zpráva byla vytvořena před 43 minutami, v 12:20 UTC
Jihovýchodní vítr 14 kt
Teplota 19°C
Vlhkost vzduchu 22%
Tlak 1023 hPa
Viditelnost 10 km a více
Žádná oblačnost pod 1500 m, nevyskytují se cumulonimby.

METAR: ESGR 231220Z 13014KT CAVOK 19/M03 Q1023

Čas: 15:03 (13:03 UTC)


TAF: chybějící

Stav a předpovědi počasí z více než 4 000 letišť (zprávy METAR a TAF).

Červené a žluté tečky na mapě představují dostupné meteorologické stanice.

Když kurzor umístíte na tečku, zobrazí se název stanice.

Pak kliknutím zobrazíte stav a předpověď počasí.

Chcete-li změnit mapu, kliknutím na zelené tlačítko se znaménkem +mapu přiblížíte, kliknutím na zelené tlačítko se znaménkem – mapu oddálíte a kliknutím na zelené šipky přejdete na sousední mapy.


METAR-TAF: